Regional Weather Roundup
Issued by NWS Burlington, VT

Home | Current Version | Previous Version | Text Only | Print | Product List | Glossary On
Versions: 1 2 3 4 5 6 7 8 9 10 11 12 13 14 15 16 17 18 19 20 21 22 23 24 25 26 27 28 29 30 31 32 33 34 35 36 37 38 39 40 41 42 43 44 45 46 47 48 49 50
000
ASUS41 KBTV 261010
RWRBTV
VERMONT REGIONAL WEATHER ROUNDUP
NATIONAL WEATHER SERVICE BURLINGTON VT
600 AM EDT SAT MAY 26 2018

NOTE: "FAIR" INDICATES FEW OR NO CLOUDS BELOW 12,000 FEET WITH NO
SIGNIFICANT WEATHER AND/OR OBSTRUCTIONS TO VISIBILITY.

* THESE REPORTS ARE NOT UNDER NWS QUALITY CONTROL AND/OR DO NOT
  REPORT WEATHER SUCH AS PRECIPITATION AND FOG.

VTZ001>019-261100-
_____VERMONT_____


CITY           SKY/WX    TMP DP  RH WIND       PRES   REMARKS
BURLINGTON     LGT RAIN  64  61  90 E3        29.71R
MONTPELIER     CLOUDY    66  56  70 SW3       29.77R
MORRISVILLE    LGT RAIN  61  60  97 CALM      29.72R FOG
ST. JOHNSBURY*   N/A     62  60  93 MISG      29.70R
LYNDONVILLE*   CLOUDY    62  56  82 CALM      29.74S
MIDDLEBURY*    CLOUDY    61  60  97 CALM      29.74R
RUTLAND*       CLOUDY    65  54  67 E3        29.76R
SPRINGFIELD    FAIR      59  56  89 VRB3      29.74R
HIGHGATE*      CLOUDY    65  55  69 S5        29.69S
NEWPORT*       CLOUDY    61  57  86 CALM      29.72R
BENNINGTON     FAIR      56  52  86 S3        29.79R

_____LAKE CHAMPLAIN_____


CITY           SKY/WX    TMP DP  RH WIND       PRES   REMARKS
COLCHESTER RF*   N/A     70  57  64 W12         N/A

$$

NYZ007-026>031-035-052-083-087-261100-
_____NORTHERN NEW YORK_____


CITY           SKY/WX    TMP DP  RH WIND       PRES   REMARKS
PLATTSBURGH    FAIR      66  58  75 CALM      29.70R
SARANAC LAKE   CLOUDY    57  56  96 W3        29.76S
MASSENA        FAIR      61  58  90 SW3       29.71R
OGDENSBURG*    FAIR      62  53  73 SW5       29.71R
POTSDAM*       FAIR      59  55  88 S5        29.71R
WATERTOWN      MOCLDY    66  49  54 SW7       29.74R
FT DRUM        FAIR      68  48  47 SW9       29.73R
ALBANY         MOCLDY    63  53  70 CALM      29.77R
GLENS FALLS    FAIR      60  54  80 W3        29.75R

$$
NHZ002-005-011-261100-
_____NEW HAMPSHIRE_____


CITY           SKY/WX    TMP DP  RH WIND       PRES   REMARKS
LEBANON        CLOUDY    62  58  86 NE7       29.73R
KEENE          FAIR      56  53  90 CALM      29.77R
MT WASHINGTON  FOG       45  45 100 W45G52      N/A  VSB 1/16
PLYMOUTH       FAIR      59  57  95 CALM      29.71S
WHITEFIELD     CLOUDY    62  60  93 CALM      29.72R

$$

_____REGIONAL QUEBEC LOCATIONS_____


CITY           SKY/WX    TMP DP  RH WIND       PRES   REMARKS
MONTREAL       RAIN      63  61  94 NW10      29.70R
QUEBEC CITY    CLOUDY    48  46  93 NE10      29.71R
SHERBROOKE     CLOUDY    63  59  88 VRB2      29.69R

_____REGIONAL ONTARIO LOCATIONS_____


CITY           SKY/WX    TMP DP  RH WIND       PRES   REMARKS
OTTAWA         MOCLDY    63  61  94 SW3       29.69S

______KEY______
VSB  - VISIBILITY IN MILES
WCI  - WIND CHILL INDEX
HX   - HEAT INDEX
$$
NNNN




USA.gov is the U.S. government's official web portal to all federal, state and local government web resources and services.